When you browse on this site, cookies collect data to enhance your experience and personalize the content and advertising you see.
Visit our Privacy Policy to learn more. By continuing to use the site, you agree to this use of cookies and data.
  • In Österreich
  • Länderverzeichnis
  • Für 7 Tage
  • Wassertemperatur
  • Satellitenkarten
  • Wetterkarte
  • News
  • Widgets
  • user-avatar
    Anmelden

    Stündliche Wetter Costa Mesa Mobile Home Estates

    Heute, 26 Juni, Mittwoch

    Zeit Temperatur Niederschläge Wind Luftdruck Luftfeuchtigkeit
    00:00 +20°C° 0 mm 1 m/S 757 mmHg 80%
    01:00 +20°C° 0 mm 1 m/S 757 mmHg 79%
    02:00 +20°C° 0 mm 1 m/S 757 mmHg 79%
    03:00 +20°C° 0 mm 1 m/S 757 mmHg 78%
    04:00 +20°C° 0 mm 1 m/S 756 mmHg 78%
    05:00 +20°C° 0 mm 1 m/S 757 mmHg 76%
    06:00 +20°C° 0 mm 1 m/S 757 mmHg 75%
    07:00 +20°C° 0 mm 1 m/S 757 mmHg 73%
    08:00 +20°C° 0 mm 2 m/S 757 mmHg 69%
    09:00 +21°C° 0 mm 2 m/S 758 mmHg 65%
    10:00 +22°C° 0 mm 3 m/S 758 mmHg 60%
    11:00 +24°C° 0 mm 3 m/S 758 mmHg 58%
    12:00 +24°C° 0 mm 3 m/S 758 mmHg 56%
    13:00 +25°C° 0 mm 4 m/S 757 mmHg 53%
    14:00 +25°C° 0 mm 4 m/S 757 mmHg 54%
    15:00 +23°C° 0 mm 4 m/S 757 mmHg 55%
    16:00 +23°C° 0 mm 4 m/S 757 mmHg 56%
    17:00 +22°C° 0 mm 3 m/S 758 mmHg 59%
    18:00 +21°C° 0 mm 3 m/S 758 mmHg 63%
    19:00 +21°C° 0 mm 2 m/S 758 mmHg 67%
    20:00 +20°C° 0 mm 2 m/S 758 mmHg 69%
    21:00 +20°C° 0 mm 2 m/S 758 mmHg 72%
    22:00 +20°C° 0 mm 1 m/S 759 mmHg 74%
    23:00 +20°C° 0 mm 1 m/S 758 mmHg 75%

    Morgen, 27 Juni, Donnerstag

    Zeit Temperatur Niederschläge Wind Luftdruck Luftfeuchtigkeit
    00:00 +20°C° 0 mm 1 m/S 758 mmHg 77%
    01:00 +19°C° 0 mm 1 m/S 758 mmHg 78%
    02:00 +19°C° 0 mm 1 m/S 758 mmHg 78%
    03:00 +19°C° 0 mm 1 m/S 758 mmHg 78%
    04:00 +19°C° 0 mm 1 m/S 758 mmHg 79%
    05:00 +20°C° 0 mm 1 m/S 758 mmHg 75%
    06:00 +20°C° 0 mm 1 m/S 759 mmHg 72%
    07:00 +19°C° 0 mm 0 m/S 759 mmHg 68%
    08:00 +22°C° 0 mm 1 m/S 759 mmHg 63%
    09:00 +24°C° 0 mm 2 m/S 759 mmHg 57%
    10:00 +25°C° 0 mm 2 m/S 759 mmHg 52%
    11:00 +26°C° 0 mm 3 m/S 759 mmHg 50%
    12:00 +26°C° 0 mm 3 m/S 759 mmHg 49%
    13:00 +27°C° 0 mm 4 m/S 759 mmHg 47%
    14:00 +27°C° 0 mm 3 m/S 758 mmHg 47%
    15:00 +27°C° 0 mm 3 m/S 758 mmHg 47%
    16:00 +27°C° 0 mm 3 m/S 758 mmHg 46%
    17:00 +26°C° 0 mm 3 m/S 758 mmHg 51%
    18:00 +25°C° 0 mm 3 m/S 758 mmHg 55%
    19:00 +24°C° 0 mm 2 m/S 758 mmHg 59%
    20:00 +23°C° 0 mm 2 m/S 758 mmHg 63%
    21:00 +21°C° 0 mm 2 m/S 758 mmHg 66%
    22:00 +21°C° 0 mm 2 m/S 759 mmHg 69%
    23:00 +21°C° 0 mm 1 m/S 759 mmHg 71%

    übermorgen, 28 Juni, Freitag

    Zeit Temperatur Niederschläge Wind Luftdruck Luftfeuchtigkeit
    00:00 +21°C° 0 mm 1 m/S 758 mmHg 73%
    01:00 +21°C° 0 mm 1 m/S 758 mmHg 75%
    02:00 +20°C° 0 mm 1 m/S 758 mmHg 75%
    03:00 +20°C° 0 mm 1 m/S 758 mmHg 76%
    04:00 +20°C° 0 mm 1 m/S 758 mmHg 77%
    05:00 +21°C° 0 mm 1 m/S 758 mmHg 73%
    06:00 +22°C° 0 mm 1 m/S 758 mmHg 68%
    07:00 +23°C° 0 mm 1 m/S 758 mmHg 63%
    08:00 +24°C° 0 mm 1 m/S 758 mmHg 57%
    09:00 +25°C° 0 mm 2 m/S 758 mmHg 51%
    10:00 +27°C° 0 mm 2 m/S 758 mmHg 44%
    11:00 +28°C° 0 mm 3 m/S 758 mmHg 42%
    12:00 +28°C° 0 mm 3 m/S 758 mmHg 40%
    13:00 +29°C° 0 mm 3 m/S 758 mmHg 37%
    14:00 +28°C° 0 mm 3 m/S 758 mmHg 37%
    15:00 +28°C° 0 mm 3 m/S 757 mmHg 38%
    16:00 +28°C° 0 mm 3 m/S 757 mmHg 38%
    17:00 +27°C° 0 mm 3 m/S 757 mmHg 43%
    18:00 +25°C° 0 mm 2 m/S 758 mmHg 48%
    19:00 +24°C° 0 mm 2 m/S 758 mmHg 53%
    20:00 +23°C° 0 mm 2 m/S 758 mmHg 56%
    21:00 +23°C° 0 mm 1 m/S 758 mmHg 58%
    22:00 +22°C° 0 mm 1 m/S 759 mmHg 61%
    23:00 +22°C° 0 mm 1 m/S 758 mmHg 62%

    29 Juni, Samstag

    Zeit Temperatur Niederschläge Wind Luftdruck Luftfeuchtigkeit
    00:00 +21°C° 0 mm 2 m/S 758 mmHg 63%
    01:00 +20°C° 0 mm 3 m/S 758 mmHg 65%
    02:00 +20°C° 0 mm 2 m/S 758 mmHg 65%
    03:00 +21°C° 0 mm 1 m/S 758 mmHg 65%
    04:00 +21°C° 0 mm 1 m/S 758 mmHg 65%
    05:00 +21°C° 0 mm 1 m/S 758 mmHg 62%
    06:00 +22°C° 0 mm 1 m/S 758 mmHg 59%
    07:00 +23°C° 0 mm 1 m/S 758 mmHg 56%
    08:00 +26°C° 0 mm 2 m/S 758 mmHg 43%
    09:00 +27°C° 0 mm 2 m/S 758 mmHg 38%
    10:00 +29°C° 0 mm 3 m/S 758 mmHg 34%
    11:00 +29°C° 0 mm 3 m/S 758 mmHg 31%
    12:00 +30°C° 0 mm 3 m/S 758 mmHg 28%
    13:00 +31°C° 0 mm 3 m/S 758 mmHg 25%
    14:00 +30°C° 0 mm 3 m/S 758 mmHg 28%
    15:00 +29°C° 0 mm 3 m/S 757 mmHg 31%
    16:00 +28°C° 0 mm 3 m/S 757 mmHg 34%
    17:00 +27°C° 0 mm 3 m/S 757 mmHg 38%
    18:00 +26°C° 0 mm 2 m/S 757 mmHg 41%
    19:00 +25°C° 0 mm 2 m/S 757 mmHg 44%
    20:00 +25°C° 0 mm 2 m/S 758 mmHg 48%
    21:00 +24°C° 0 mm 1 m/S 758 mmHg 51%
    22:00 +23°C° 0 mm 1 m/S 759 mmHg 55%
    23:00 +23°C° 0 mm 1 m/S 758 mmHg 57%

    30 Juni, Sonntag

    Zeit Temperatur Niederschläge Wind Luftdruck Luftfeuchtigkeit
    00:00 +22°C° 0 mm 1 m/S 758 mmHg 60%
    01:00 +22°C° 0 mm 1 m/S 758 mmHg 62%
    02:00 +22°C° 0 mm 1 m/S 758 mmHg 63%
    03:00 +22°C° 0 mm 1 m/S 758 mmHg 63%
    04:00 +19°C° 0 mm 0 m/S 758 mmHg 63%
    05:00 +20°C° 0 mm 0 m/S 758 mmHg 60%
    06:00 +21°C° 0 mm 0 m/S 758 mmHg 57%
    07:00 +24°C° 0 mm 1 m/S 758 mmHg 53%
    08:00 +25°C° 0 mm 1 m/S 758 mmHg 48%
    09:00 +26°C° 0 mm 2 m/S 758 mmHg 42%
    10:00 +28°C° 0 mm 2 m/S 758 mmHg 37%
    11:00 +28°C° 0 mm 3 m/S 758 mmHg 36%
    12:00 +29°C° 0 mm 3 m/S 758 mmHg 35%
    13:00 +29°C° 0 mm 4 m/S 758 mmHg 35%
    14:00 +29°C° 0 mm 4 m/S 757 mmHg 36%
    15:00 +28°C° 0 mm 4 m/S 757 mmHg 38%
    16:00 +28°C° 0 mm 4 m/S 757 mmHg 40%
    17:00 +27°C° 0 mm 4 m/S 757 mmHg 44%
    18:00 +26°C° 0 mm 3 m/S 757 mmHg 47%
    19:00 +25°C° 0 mm 3 m/S 757 mmHg 51%
    20:00 +24°C° 0 mm 2 m/S 758 mmHg 55%
    21:00 +23°C° 0 mm 2 m/S 758 mmHg 59%
    22:00 +21°C° 0 mm 2 m/S 758 mmHg 63%
    23:00 +21°C° 0 mm 2 m/S 758 mmHg 65%

    1 Juli, Montag

    Zeit Temperatur Niederschläge Wind Luftdruck Luftfeuchtigkeit
    00:00 +21°C° 0 mm 2 m/S 758 mmHg 67%
    01:00 +20°C° 0 mm 2 m/S 758 mmHg 69%
    02:00 +20°C° 0 mm 2 m/S 758 mmHg 70%
    03:00 +20°C° 0 mm 2 m/S 758 mmHg 71%
    04:00 +20°C° 0 mm 2 m/S 757 mmHg 72%
    05:00 +20°C° 0 mm 2 m/S 758 mmHg 69%
    06:00 +21°C° 0 mm 2 m/S 758 mmHg 65%
    07:00 +22°C° 0 mm 3 m/S 758 mmHg 62%
    08:00 +24°C° 0 mm 3 m/S 758 mmHg 57%
    09:00 +26°C° 0 mm 3 m/S 758 mmHg 52%
    10:00 +27°C° 0 mm 3 m/S 758 mmHg 48%
    11:00 +27°C° 0 mm 4 m/S 757 mmHg 46%
    12:00 +28°C° 0 mm 4 m/S 757 mmHg 43%
    13:00 +28°C° 0 mm 4 m/S 757 mmHg 41%
    14:00 +28°C° 0 mm 3 m/S 757 mmHg 41%
    15:00 +28°C° 0 mm 3 m/S 756 mmHg 41%
    16:00 +27°C° 0 mm 3 m/S 756 mmHg 41%
    17:00 +26°C° 0 mm 3 m/S 756 mmHg 45%
    18:00 +25°C° 0 mm 2 m/S 756 mmHg 50%
    19:00 +24°C° 0 mm 2 m/S 756 mmHg 54%
    20:00 +24°C° 0 mm 2 m/S 756 mmHg 57%
    21:00 +22°C° 0 mm 3 m/S 757 mmHg 61%
    22:00 +21°C° 0 mm 3 m/S 757 mmHg 64%
    23:00 +21°C° 0 mm 3 m/S 757 mmHg 66%
    Mehr zeigen